Find Starlink 31598

NORAD ID: 59263 Int'l Des: 2024-050 Owner: SPXS Country: US Constellation: starlink operational
LEOCIRCULAR

实时位置

正在加载3D地球...

关于 Starlink 31598

正在加载描述...

即将过境

Passes for default location (London). Set your location on the main map for personalized predictions.

高度历史

Loading altitude history...

两行轨道根数

1 59263U 24050K 26139.49499146 .00000591 00000-0 32083-4 0 9998
2 59263 53.1591 212.4817 0001036 81.4866 278.6252 15.30190594121383
Epoch: May 19, 2026 • Age: 11 hours

当前状态

高度 475.2 km
速度 7.63 km/s
星下点 8.99°N, 4.02°W
发射日期 Mar 19, 2024
运行时间 2.1 years
类型 internet

技术详情

分类 Payload
质量 730.00 kg
干质量 700.00 kg
总质量 730.00 kg
长度 0.30 m
直径 4.10 m
跨度 29.00 m
形状 Box + pan
制造商 SPXS
平台类型 Starlink V2M
阶段状态 In Orbit
所有者/国家 SPXS/US

Most Searched